Preview of NWS' New Version of Forecast
This preview is not operational and should not be used for support decisions.

Regional Weather Roundup (RWR)

Issued by National Weather Service (NWS)

                            
000
ASUS44 KMEG 211100
RWRTN 
TENNESSEE HOURLY STATE WEATHER ROUNDUP
NATIONAL WEATHER SERVICE MEMPHIS TN
600 AM CDT SUN JUL 21 2019

TNZ002-004-019-021-049-052-054-088>092-211200-
WEST TENNESSEE
  
CITY           SKY/WX    TMP DP  RH WIND       PRES   REMARKS
MEMPHIS INTL   FAIR      76  75  97 S3        29.99R                  
NWS MEMPHIS      N/A     76 N/A N/A MISG        N/A                   
JACKSON        CLOUDY    75  74  96 CALM      30.00R                  
DYERSBURG      FAIR      74  74 100 CALM      30.00R                  
HUNTINGDON     CLOUDY    75  73  94 S5        30.00R                  
LEXINGTON      CLOUDY    75  73  94 S6        30.00R                  
$$

TNZ008-025-027-028-033-062-065-066-211200-
NORTH MIDDLE TENNESSEE
  
CITY           SKY/WX    TMP DP  RH WIND       PRES   REMARKS
NASHVILLE      CLOUDY    75  71  87 S3        30.01R                  
CLARKSVILLE    MOCLDY    74  72  93 S5        29.99R                  
SMYRNA         FAIR      71  71 100 CALM      30.02S                  
LIVINGSTON     PTSUNNY   70  70 100 SW5       30.04R                  
CROSSVILLE     FAIR      69  68  96 S3        30.09S FOG              
$$

TNZ061-075-076-078-094-096-097-211200-
SOUTH MIDDLE TENNESSEE
  
CITY           SKY/WX    TMP DP  RH WIND       PRES   REMARKS
FAYETTEVILLE   PTCLDY    73  73 100 S6        30.04S                  
WINCHESTER     CLOUDY    73  72  94 CALM      30.05R                  
$$

TNZ017-018-042-046-047-211200-
NORTHEAST TENNESSEE
  
CITY           SKY/WX    TMP DP  RH WIND       PRES   REMARKS
TRI CITIES     FOG       70  69  97 CALM      30.07R VSB 1            
$$

TNZ012-013-036-069-073-074-211200-
CENTRAL EAST TENNESSEE
  
CITY           SKY/WX    TMP DP  RH WIND       PRES   REMARKS
KNOXVILLE      CLOUDY    73  71  93 SW7       30.04R                  
OAK RIDGE      CLOUDY    76  72  87 CALM      30.05S                  
$$

TNZ083-085-099-211200-
SOUTHEAST TENNESSEE
  
CITY           SKY/WX    TMP DP  RH WIND       PRES   REMARKS
CHATTANOOGA    MOCLDY    74  72  93 S3        30.07R                  
$$

SKY/WX REPORTED AS FAIR MEANS FEW OR NO CLOUDS BELOW
12 THOUSAND FEET.